Regional Weather Roundup
Issued by NWS

Home | Current Version | Previous Version | Graphics & Text | Print | Product List | Glossary On
Versions: 1 2 3 4 5 6 7 8 9 10 11 12 13 14 15 16 17 18 19 20 21 22 23 24 25 26 27 28 29 30 31 32 33 34 35 36 37 38 39 40 41 42 43 44 45 46 47 48 49 50
571
ASUS43 KOAX 251510
RWRNE

WEATHER ROUNDUP FOR NEBRASKA
NATIONAL WEATHER SERVICE OMAHA NE
1000 AM CDT MON JUL 25 2016

NOTES: SATELLITE DATA IS BEING USED TO AUGMENT CLOUD COVER ABOVE
       12000 FEET.
       "FAIR" INDICATES FEW OR NO CLOUDS BELOW 12,000 FEET WITH NO
       SIGNIFICANT WEATHER AND/OR OBSTRUCTIONS TO VISIBILITY.

  * THESE STATIONS DO NOT REPORT WEATHER SUCH AS RAIN...SNOW OR FOG.

NEZ001>004-019>022-054>056-251600-
NEBRASKA PANHANDLE

CITY           SKY/WX    TMP DP  RH WIND       PRES   REMARKS
SCOTTSBLUFF    SUNNY     72  57  59 SE12      30.17F
ALLIANCE       SUNNY     72  61  68 SE13      30.19R
CHADRON        SUNNY     77  54  44 S17       30.13S
KIMBALL        SUNNY     67  58  71 S16       30.23S
SIDNEY         SUNNY     73  56  54 S15       30.22R
$$

NEZ057>060-069>072-079>082-251600-
SOUTHWEST NEBRASKA

CITY           SKY/WX    TMP DP  RH WIND       PRES   REMARKS
NORTH PLATTE   SUNNY     73  64  73 SE9       30.19S
IMPERIAL       SUNNY     71  61  70 SE8       30.19F
LEXINGTON      SUNNY     74  62  67 E15       30.18F
MCCOOK         SUNNY     76  62  62 E9        30.18R
OGALLALA       SUNNY     74  62  64 SE12      30.20R
$$

NEZ005>010-023>029-035>040-094-251600-
NORTH CENTRAL NEBRASKA

CITY           SKY/WX    TMP DP  RH WIND       PRES   REMARKS
VALENTINE      SUNNY     79  57  46 S15       30.16S
AINSWORTH      SUNNY     78  50  38 S12G17    30.17S
BROKEN BOW     SUNNY     72  59  63 SE13      30.19S
O`NEILL        SUNNY     79  56  44 S9        30.18R
ORD            MOSUNNY   74  56  53 S12       30.18R
THEDFORD       SUNNY     76  60  57 S10       30.20S
$$

NEZ041-046>049-061>064-073>077-083>087-251600-
SOUTH CENTRAL NEBRASKA

CITY           SKY/WX    TMP DP  RH WIND       PRES   REMARKS
GRAND ISLAND   CLOUDY    73  61  65 SE7       30.18F
AURORA         CLOUDY    73  64  74 SE8       30.18S
HASTINGS       PTSUNNY   73  63  70 SE8       30.18S
HEBRON         PTSUNNY   73  65  77 E3        30.15F
HOLDREGE       CLOUDY    73  64  72 E12       30.18S
KEARNEY *      MOSUNNY   73  64  73 SE9       30.19S
YORK           CLOUDY    73  64  73 S8        30.18S
$$

NEZ011>018-030>034-042>045-251600-
NORTHEAST NEBRASKA

CITY           SKY/WX    TMP DP  RH WIND       PRES   REMARKS
NORFOLK        MOSUNNY   77  61  57 SE7       30.16R
ALBION         CLOUDY    72  61  67 S7        30.19R
BLAIR          CLOUDY    76  64  66 E5        30.15R
FREMONT        PTSUNNY   75  64  70 S5        30.16R
TEKAMAH        CLOUDY    77  64  64 CALM      30.13R
WAYNE          SUNNY     76  65  67 SE3       30.16R
$$

NEZ050>053-065>068-078-088>093-251600-
SOUTHEAST NEBRASKA

CITY           SKY/WX    TMP DP  RH WIND       PRES   REMARKS
LINCOLN        PTSUNNY   76  64  66 SE5       30.16R
OMAHA EPPLEY   CLOUDY    77  66  68 S3        30.13R
BEATRICE       PTSUNNY   72  65  79 E5        30.15S
FALLS CITY     CLOUDY    73  67  81 E3        30.11R
NEBRASKA CITY  CLOUDY    73  67  81 CALM      30.14S
PLATTSMOUTH    CLOUDY    74  65  75 SE3       30.15R
$$

NEZ044-045-051>053-067-251600-
OMAHA AREA

CITY           SKY/WX    TMP DP  RH WIND       PRES   REMARKS
OMAHA EPPLEY   CLOUDY    77  66  68 S3        30.13R
BLAIR          CLOUDY    76  64  66 E5        30.15R
FREMONT        PTSUNNY   75  64  70 S5        30.16R
MILLARD        CLOUDY    79  66  64 S7        30.14R
PLATTSMOUTH    CLOUDY    74  65  75 SE3       30.15R
WAHOO          FAIR      74  66  76 S5        30.16R
$$




USA.gov is the U.S. government's official web portal to all federal, state and local government web resources and services.